This demonstration page uses our WeatherBlox Daily Observations layout. Learn more.

Left ArrowRight Arrow

39.51506, -84.39828

Hourly Observations for June 20, 2017

Temp ( °F °C ) Dew Point ( °F °C ) Humidity (%) Winds ( mph kmh ) Pressure ( in mb ) Visibility ( mi km ) Precip ( " mm )
12:15 am 00:15 Clear 64 17.7 55 12.8 73 73 N 3 6 29.97 1015 10 16 0.00 0.00
12:35 am 00:35 Clear 62 16.6 55 12.7 78 78 N 3 6 29.97 1015 10 16 0.00 0.00
12:55 am 00:55 Clear 61 16 54 12.4 79 79 Calm 29.97 1015 10 16 0.00 0.00
1:15 am 01:15 Clear 62 16.8 55 13 78 78 Calm 29.97 1015 10 16 0.00 0.00
1:35 am 01:35 Clear 60 15.4 54 12.4 82 82 W 3 6 29.97 1015 10 16 0.00 0.00
1:55 am 01:55 Partly Cloudy 60 15.3 54 12.3 82 82 Calm 29.97 1015 10 16 0.00 0.00
2:15 am 02:15 Mostly Cloudy 60 15.6 55 12.6 82 82 Calm 29.97 1015 10 16 0.00 0.00
2:35 am 02:35 Partly Cloudy 61 16 55 12.9 82 82 SW 5 7 29.97 1015 10 16 0.00 0.00
2:55 am 02:55 Clear 60 15.8 55 12.6 81 81 Calm 29.97 1015 10 16 0.00 0.00
3:15 am 03:15 Clear 61 15.9 54 12.2 79 79 SW 5 7 29.97 1015 10 16 0.00 0.00
3:35 am 03:35 Clear 60 15.6 53 11.8 78 78 W 6 9 29.97 1015 10 16 0.00 0.00
3:55 am 03:55 Clear 63 17 52 11.2 69 69 S 8 13 29.97 1015 10 16 0.00 0.00
4:15 am 04:15 Clear 62 16.4 54 12.3 77 77 SW 5 7 29.97 1015 10 16 0.00 0.00
4:35 am 04:35 Clear 60 15.5 53 11.5 77 77 Calm 29.97 1015 10 16 0.00 0.00
4:55 am 04:55 Clear 60 15.3 52 10.9 75 75 WSW 3 6 29.97 1015 10 16 0.00 0.00
5:15 am 05:15 Clear 61 16 52 11 72 72 W 5 7 29.97 1015 10 16 0.00 0.00
5:35 am 05:35 Clear 60 15.3 52 11.3 77 77 W 6 9 29.97 1015 10 16 0.00 0.00
5:55 am 05:55 Clear 60 15.3 53 11.6 79 79 WSW 5 7 29.97 1015 10 16 0.00 0.00
6:15 am 06:15 Sunny 60 15.3 53 11.6 79 79 W 6 9 30.03 1017 10 16 0.00 0.00
6:35 am 06:35 Sunny 61 16 52 10.9 72 72 WSW 7 11 30.00 1016 10 16 0.00 0.00
6:55 am 06:55 Sunny 62 16.6 52 11.3 71 71 WSW 6 9 30.00 1016 10 16 0.00 0.00
7:15 am 07:15 Sunny 63 17 53 11.9 72 72 Calm 30.00 1016 10 16 0.00 0.00
7:35 am 07:35 Sunny 64 18 54 12 68 68 Calm 30.00 1016 10 16 0.00 0.00
7:55 am 07:55 Sunny 67 19.5 56 13.3 68 68 SSW 3 6 30.00 1016 10 16 0.00 0.00
8:15 am 08:15 Sunny 69 20.8 56 13.2 62 62 WSW 3 6 30.00 1016 10 16 0.00 0.00
8:35 am 08:35 Sunny 69 20.8 55 12.8 60 60 SSW 3 6 30.00 1016 10 16 0.00 0.00
8:55 am 08:55 Sunny 71 21.6 53 11.9 54 54 W 7 11 30.00 1016 10 16 0.00 0.00
9:15 am 09:15 Sunny 74 23.6 56 13.1 52 52 W 3 6 30.03 1017 10 16 0.00 0.00
9:35 am 09:35 Sunny 74 23.6 52 11.2 46 46 WNW 9 15 30.03 1017 10 16 0.00 0.00
9:55 am 09:55 Sunny 74 23.6 52 10.9 45 45 WSW 7 11 30.03 1017 10 16 0.00 0.00
10:15 am 10:15 Sunny 74 23.6 51 10.3 43 43 W 5 7 30.03 1017 10 16 0.00 0.00
10:35 am 10:35 Sunny 77 24.9 50 10.1 39 39 WSW 7 11 30.03 1017 10 16 0.00 0.00
10:55 am 10:55 Sunny 77 25.1 49 9.7 38 38 WSW 5 7 30.03 1017 10 16 0.00 0.00
11:15 am 11:15 Sunny 77 25.1 50 10 39 39 WSW 7 11 30.03 1017 10 16 0.00 0.00
11:35 am 11:35 Sunny 77 25.1 50 10 39 39 WSW 8 13 30.03 1017 10 16 0.00 0.00
11:55 am 11:55 Sunny 77 25.1 50 9.8 38 38 SSW 6 9 30.03 1017 10 16 0.00 0.00
12:15 pm 12:15 Sunny 80 26.5 50 10.2 36 36 W 7 11 30.03 1017 10 16 0.00 0.00
12:35 pm 12:35 Sunny 80 26.5 51 10.4 36 36 WSW 9 15 30.03 1017 10 16 0.00 0.00
12:55 pm 12:55 Sunny 80 26.5 51 10.3 36 36 SW 9 15 30.03 1017 10 16 0.00 0.00
1:15 pm 13:15 Sunny 80 26.5 49 9.5 34 34 WSW 10 17 30.00 1016 10 16 0.00 0.00
1:35 pm 13:35 Partly Cloudy 80 26.9 52 10.9 37 37 W 5 7 30.00 1016 10 16 0.00 0.00
1:55 pm 13:55 Partly Cloudy 81 27.1 50 10.2 35 35 W 9 15 30.00 1016 10 16 0.00 0.00
2:15 pm 14:15 Partly Cloudy 81 27 49 9.7 34 34 SW 6 9 30.00 1016 10 16 0.00 0.00
2:35 pm 14:35 Partly Cloudy 82 27.6 47 8.1 29 29 WSW 15 24 30.00 1016 10 16 0.00 0.00
2:55 pm 14:55 Partly Cloudy 81 27.1 48 8.8 32 32 WSW 8 13 30.00 1016 10 16 0.00 0.00
3:15 pm 15:15 Partly Cloudy 80 26.5 49 9.3 34 34 SW 9 15 29.97 1015 10 16 0.00 0.00
3:35 pm 15:35 Mostly Cloudy 80 26.5 49 9.2 34 34 WSW 9 15 29.97 1015 10 16 0.00 0.00
3:55 pm 15:55 Partly Cloudy 82 27.7 49 9.6 32 32 W 9 15 29.97 1015 10 16 0.00 0.00
4:15 pm 16:15 Partly Cloudy 81 27.2 47 8.3 30 30 SW 6 9 29.97 1015 10 16 0.00 0.00
4:35 pm 16:35 Mostly Cloudy 80 26.6 49 9.4 34 34 W 5 7 29.97 1015 10 16 0.00 0.00
4:55 pm 16:55 Partly Cloudy 82 27.7 48 8.9 31 31 W 7 11 29.97 1015 10 16 0.00 0.00
5:15 pm 17:15 Partly Cloudy 81 27 49 9.4 33 33 SW 10 17 29.97 1015 10 16 0.00 0.00
5:35 pm 17:35 Partly Cloudy 82 27.9 46 8 29 29 WSW 13 20 29.94 1014 10 16 0.00 0.00
5:55 pm 17:55 Partly Cloudy 82 28 42 5.8 24 24 SW 9 15 29.91 1013 10 16 0.00 0.00
6:15 pm 18:15 Sunny 82 28 43 6 25 25 SW 10 17 29.91 1013 10 16 0.00 0.00
6:35 pm 18:35 Sunny 82 28 41 4.9 23 23 WSW 9 15 29.91 1013 10 16 0.00 0.00
6:55 pm 18:55 Sunny 82 27.7 43 6.3 26 26 SW 8 13 29.91 1013 10 16 0.00 0.00
7:15 pm 19:15 Sunny 81 27.2 44 6.9 28 28 WSW 6 9 29.94 1014 10 16 0.00 0.00
7:35 pm 19:35 Sunny 81 27.2 43 6.3 26 26 SW 6 9 29.94 1014 10 16 0.00 0.00
7:55 pm 19:55 Sunny 80 26.5 45 7.1 29 29 SW 6 9 29.94 1014 10 16 0.00 0.00
8:15 pm 20:15 Sunny 80 26.5 51 10.5 37 37 SW 5 7 29.94 1014 10 16 0.00 0.00
8:35 pm 20:35 Sunny 77 25.1 57 13.9 50 50 Calm 29.94 1014 10 16 0.00 0.00
8:55 pm 20:55 Sunny 74 23.4 59 14.9 59 59 Calm 29.94 1014 10 16 0.00 0.00
9:15 pm 21:15 Clear 69 20.8 56 13.6 64 64 Calm 29.94 1014 10 16 0.00 0.00
9:35 pm 21:35 Clear 69 20.8 59 15.2 70 70 Calm 29.94 1014 10 16 0.00 0.00
9:55 pm 21:55 Clear 69 20.8 60 15.7 73 73 Calm 29.94 1014 10 16 0.00 0.00
10:15 pm 22:15 Clear 67 19.5 59 15.2 76 76 Calm 29.94 1014 10 16 0.00 0.00
10:35 pm 22:35 Clear 67 19.2 59 14.9 76 76 Calm 29.97 1015 10 16 0.00 0.00
10:55 pm 22:55 Clear 66 18.9 58 14.5 76 76 Calm 29.97 1015 10 16 0.00 0.00
11:15 pm 23:15 Clear 67 19.5 59 15.1 76 76 Calm 29.97 1015 10 16 0.00 0.00
11:35 pm 23:35 Clear 65 18.3 58 14.2 77 77 Calm 29.97 1015 10 16 0.00 0.00
11:55 pm 23:55 Clear 67 19.5 59 15.1 76 76 WNW 3 6 29.97 1015 10 16 0.00 0.00

Powered by AerisWeather